| time (UTC) | temp F | wind direction | speed MPH | gust MPH | rain 1hr in | rain 24hr in | rain mn in | humidity % | barometer mb |
| 20260506072104 | 67 | 279 | 2.0 | 5.0 | 0.00 | 0.02 | 0.00 | 67 | 1009.3 |
| 20260506071604 | 67 | 236 | 2.0 | 6.0 | 0.00 | 0.02 | 0.00 | 67 | 1009.3 |
| 20260506071104 | 68 | 277 | 2.0 | 6.0 | 0.00 | 0.02 | 0.00 | 67 | 1009.4 |
| 20260506070604 | 68 | 247 | 2.0 | 8.0 | 0.00 | 0.02 | 0.00 | 66 | 1009.6 |
| 20260506070106 | 68 | 284 | 2.0 | 6.0 | 0.00 | 0.02 | 0.00 | 66 | 1009.6 |
| 20260506061605 | 69 | 269 | 1.0 | 7.0 | 0.00 | 0.02 | 0.00 | 63 | 1009.6 |
| 20260506061105 | 69 | 236 | 2.0 | 8.0 | 0.00 | 0.02 | 0.00 | 63 | 1009.6 |
| 20260506060605 | 69 | 240 | 3.0 | 5.0 | 0.00 | 0.02 | 0.00 | 63 | 1009.6 |
| 20260506051104 | 70 | 205 | 3.0 | 9.0 | 0.00 | 0.02 | 0.00 | 61 | 1010.0 |
| 20260506050604 | 70 | 257 | 1.0 | 8.0 | 0.00 | 0.02 | 0.00 | 61 | 1010.1 |
| 20260506050105 | 70 | 250 | 2.0 | 9.0 | 0.00 | 0.02 | 0.00 | 61 | 1010.1 |
| 20260506045104 | 70 | 273 | 3.0 | 12.0 | 0.00 | 0.02 | 0.00 | 60 | 1010.1 |
| 20260506044104 | 71 | 251 | 3.0 | 17.0 | 0.00 | 0.02 | 0.00 | 59 | 1010.1 |
| 20260506043604 | 71 | 277 | 6.0 | 12.0 | 0.00 | 0.02 | 0.00 | 59 | 1010.1 |
| 20260506041604 | 71 | 252 | 3.0 | 9.0 | 0.00 | 0.02 | 0.00 | 57 | 1010.0 |
| 20260506041105 | 71 | 276 | 2.0 | 7.0 | 0.00 | 0.02 | 0.00 | 57 | 1009.9 |
| 20260506040605 | 72 | 267 | 5.0 | 14.0 | 0.00 | 0.02 | 0.00 | 56 | 1009.8 |
| 20260506040105 | 72 | 233 | 2.0 | 6.0 | 0.00 | 0.02 | 0.00 | 56 | 1009.8 |
| 20260506035606 | 72 | 238 | 2.0 | 20.0 | 0.00 | 0.02 | 0.02 | 56 | 1009.8 |
| 20260506034605 | 72 | 306 | 2.0 | 14.0 | 0.00 | 0.02 | 0.02 | 54 | 1009.9 |
| 20260506034104 | 72 | 283 | 5.0 | 14.0 | 0.00 | 0.02 | 0.02 | 53 | 1009.8 |
| 20260506033605 | 72 | 257 | 5.0 | 12.0 | 0.00 | 0.02 | 0.02 | 53 | 1009.7 |
| 20260506033105 | 72 | 288 | 1.0 | 12.0 | 0.00 | 0.02 | 0.02 | 52 | 1009.7 |
| 20260506032604 | 72 | 237 | 5.0 | 12.0 | 0.00 | 0.02 | 0.02 | 52 | 1009.7 |
| 20260506032104 | 73 | 255 | 3.0 | 8.0 | 0.00 | 0.02 | 0.02 | 51 | 1009.8 |
| 20260506031604 | 73 | 228 | 3.0 | 7.0 | 0.00 | 0.02 | 0.02 | 50 | 1009.7 |
| 20260506031104 | 73 | 259 | 3.0 | 9.0 | 0.00 | 0.02 | 0.02 | 50 | 1009.6 |
| 20260506030604 | 73 | 282 | 3.0 | 7.0 | 0.00 | 0.02 | 0.02 | 50 | 1009.6 |
| 20260506030104 | 74 | 277 | 2.0 | 7.0 | 0.00 | 0.02 | 0.02 | 49 | 1009.6 |
| 20260506025605 | 74 | 312 | 3.0 | 14.0 | 0.00 | 0.02 | 0.02 | 49 | 1009.6 |
| 20260506025104 | 74 | 275 | 3.0 | 14.0 | 0.00 | 0.02 | 0.02 | 48 | 1009.5 |
| 20260506024604 | 74 | 265 | 3.0 | 12.0 | 0.00 | 0.02 | 0.02 | 48 | 1009.4 |
| 20260506024104 | 74 | 218 | 5.0 | 16.0 | 0.00 | 0.02 | 0.02 | 48 | 1009.5 |
| 20260506023604 | 74 | 242 | 6.0 | 13.0 | 0.00 | 0.02 | 0.02 | 47 | 1009.4 |
| 20260506023104 | 75 | 258 | 4.0 | 15.0 | 0.00 | 0.02 | 0.02 | 47 | 1009.4 |
| 20260506022604 | 75 | 263 | 3.0 | 13.0 | 0.00 | 0.02 | 0.02 | 47 | 1009.4 |
| 20260506022104 | 75 | 253 | 4.0 | 12.0 | 0.00 | 0.02 | 0.02 | 47 | 1009.4 |
| 20260506021604 | 75 | 251 | 5.0 | 15.0 | 0.00 | 0.02 | 0.02 | 47 | 1009.4 |
| 20260506021105 | 75 | 244 | 5.0 | 15.0 | 0.00 | 0.02 | 0.02 | 47 | 1009.4 |
| 20260506020605 | 75 | 228 | 6.0 | 18.0 | 0.00 | 0.02 | 0.02 | 46 | 1009.3 |
| 20260506020104 | 75 | 241 | 5.0 | 10.0 | 0.00 | 0.02 | 0.02 | 46 | 1009.4 |
| 20260506015604 | 75 | 249 | 6.0 | 20.0 | 0.00 | 0.02 | 0.02 | 45 | 1009.3 |
| 20260506015104 | 75 | 231 | 5.0 | 14.0 | 0.00 | 0.02 | 0.02 | 45 | 1009.3 |
| 20260506014604 | 75 | 251 | 3.0 | 12.0 | 0.00 | 0.02 | 0.02 | 44 | 1009.3 |
| 20260506014104 | 75 | 253 | 2.0 | 6.0 | 0.00 | 0.02 | 0.02 | 44 | 1009.3 |
| 20260506013604 | 75 | 252 | 3.0 | 8.0 | 0.00 | 0.02 | 0.02 | 44 | 1009.3 |
| 20260506013104 | 76 | 247 | 2.0 | 7.0 | 0.00 | 0.02 | 0.02 | 43 | 1009.2 |
| 20260506012605 | 76 | 239 | 3.0 | 9.0 | 0.00 | 0.02 | 0.02 | 42 | 1009.1 |
| 20260506011604 | 76 | 241 | 3.0 | 6.0 | 0.00 | 0.02 | 0.02 | 42 | 1009.1 |
| 20260506011104 | 76 | 253 | 2.0 | 3.0 | 0.00 | 0.02 | 0.02 | 42 | 1009.0 |
| 20260506010604 | 76 | 264 | 3.0 | 8.0 | 0.00 | 0.02 | 0.02 | 42 | 1008.9 |
| 20260506010104 | 76 | 243 | 2.0 | 8.0 | 0.00 | 0.02 | 0.02 | 42 | 1008.8 |
| 20260506005605 | 76 | 246 | 2.0 | 8.0 | 0.00 | 0.02 | 0.02 | 42 | 1008.9 |
| 20260506005105 | 76 | 243 | 1.0 | 3.0 | 0.00 | 0.02 | 0.02 | 42 | 1008.9 |
| 20260506004604 | 76 | 250 | 2.0 | 7.0 | 0.00 | 0.02 | 0.02 | 41 | 1008.9 |
| 20260506003604 | 76 | 262 | 3.0 | 15.0 | 0.00 | 0.02 | 0.02 | 41 | 1008.8 |
| 20260506003104 | 76 | 272 | 2.0 | 5.0 | 0.00 | 0.02 | 0.02 | 41 | 1008.8 |
| 20260506002604 | 76 | 239 | 2.0 | 5.0 | 0.00 | 0.02 | 0.02 | 41 | 1008.7 |
| 20260506001104 | 76 | 272 | 3.0 | 10.0 | 0.00 | 0.02 | 0.02 | 40 | 1008.6 |
| 20260506000605 | 76 | 252 | 2.0 | 13.0 | 0.00 | 0.02 | 0.02 | 39 | 1008.6 |
| 20260506000105 | 77 | 273 | 3.0 | 9.0 | 0.00 | 0.02 | 0.02 | 39 | 1008.5 |
| 20260505235605 | 77 | 257 | 5.0 | 14.0 | 0.00 | 0.02 | 0.02 | 39 | 1008.5 |
| 20260505235104 | 77 | 246 | 5.0 | 15.0 | 0.00 | 0.02 | 0.02 | 38 | 1008.5 |
| 20260505234606 | 77 | 270 | 5.0 | 14.0 | 0.00 | 0.02 | 0.02 | 38 | 1008.4 |
| 20260505234105 | 78 | 245 | 3.0 | 12.0 | 0.00 | 0.02 | 0.02 | 37 | 1008.3 |
| 20260505233604 | 78 | 263 | 5.0 | 17.0 | 0.00 | 0.02 | 0.02 | 37 | 1008.2 |
| 20260505233104 | 78 | 264 | 3.0 | 20.0 | 0.00 | 0.02 | 0.02 | 37 | 1008.2 |
| 20260505232104 | 78 | 273 | 6.0 | 14.0 | 0.00 | 0.02 | 0.02 | 37 | 1008.0 |
| 20260505231605 | 79 | 272 | 7.0 | 13.0 | 0.00 | 0.02 | 0.02 | 37 | 1008.0 |
| 20260505231104 | 79 | 242 | 4.0 | 12.0 | 0.00 | 0.02 | 0.02 | 37 | 1008.0 |
| 20260505230604 | 79 | 259 | 6.0 | 18.0 | 0.00 | 0.02 | 0.02 | 36 | 1007.9 |
| 20260505230104 | 79 | 251 | 10.0 | 22.0 | 0.00 | 0.02 | 0.02 | 36 | 1007.8 |
| 20260505225106 | 80 | 264 | 7.0 | 20.0 | 0.00 | 0.02 | 0.02 | 36 | 1007.6 |
| 20260505224605 | 80 | 280 | 7.0 | 20.0 | 0.00 | 0.02 | 0.02 | 35 | 1007.6 |
| 20260505224104 | 80 | 243 | 4.0 | 20.0 | 0.00 | 0.02 | 0.02 | 37 | 1007.5 |
| 20260505223609 | 80 | 249 | 5.0 | 10.0 | 0.00 | 0.02 | 0.02 | 36 | 1007.5 |
| 20260505223104 | 80 | 251 | 3.0 | 10.0 | 0.00 | 0.02 | 0.02 | 36 | 1007.4 |
| 20260505222604 | 80 | 276 | 10.0 | 23.0 | 0.00 | 0.02 | 0.02 | 36 | 1007.4 |
| 20260505222106 | 81 | 288 | 6.0 | 17.0 | 0.00 | 0.02 | 0.02 | 36 | 1007.4 |
| 20260505220605 | 81 | 266 | 3.0 | 20.0 | 0.00 | 0.02 | 0.02 | 37 | 1007.1 |
| 20260505220105 | 81 | 263 | 4.0 | 10.0 | 0.00 | 0.02 | 0.02 | 36 | 1007.1 |
| 20260505215604 | 80 | 259 | 4.0 | 18.0 | 0.00 | 0.02 | 0.02 | 37 | 1007.0 |
| 20260505214105 | 81 | 255 | 3.0 | 17.0 | 0.00 | 0.02 | 0.02 | 36 | 1007.1 |
| 20260505213605 | 81 | 252 | 5.0 | 13.0 | 0.00 | 0.02 | 0.02 | 38 | 1007.0 |
| 20260505212603 | 81 | 246 | 6.0 | 12.0 | 0.00 | 0.02 | 0.02 | 37 | 1007.0 |
| 20260505211604 | 82 | 240 | 5.0 | 14.0 | 0.00 | 0.02 | 0.02 | 35 | 1006.9 |
| 20260505211104 | 83 | 254 | 5.0 | 17.0 | 0.00 | 0.02 | 0.02 | 36 | 1006.8 |
| 20260505210604 | 83 | 253 | 8.0 | 20.0 | 0.00 | 0.02 | 0.02 | 35 | 1006.7 |
| 20260505210105 | 83 | 279 | 10.0 | 21.0 | 0.00 | 0.02 | 0.02 | 34 | 1006.7 |
| 20260505205605 | 84 | 262 | 8.0 | 20.0 | 0.00 | 0.02 | 0.02 | 36 | 1006.5 |
| 20260505205105 | 83 | 268 | 6.0 | 20.0 | 0.00 | 0.02 | 0.02 | 37 | 1006.5 |
| 20260505204605 | 83 | 225 | 6.0 | 12.0 | 0.00 | 0.02 | 0.02 | 36 | 1006.5 |
| 20260505204104 | 83 | 259 | 7.0 | 12.0 | 0.00 | 0.02 | 0.02 | 37 | 1006.5 |
| 20260505203104 | 85 | 235 | 4.0 | 12.0 | 0.00 | 0.02 | 0.02 | 37 | 1006.6 |
| 20260505202104 | 83 | 269 | 5.0 | 13.0 | 0.00 | 0.02 | 0.02 | 37 | 1006.8 |
| 20260505201109 | 83 | 269 | 9.0 | 15.0 | 0.00 | 0.02 | 0.02 | 36 | 1007.0 |
| 20260505200105 | 84 | 237 | 8.0 | 13.0 | 0.00 | 0.02 | 0.02 | 35 | 1007.0 |
| 20260505195604 | 83 | 254 | 6.0 | 17.0 | 0.00 | 0.02 | 0.02 | 36 | 1006.9 |
| 20260505195105 | 83 | 238 | 5.0 | 8.0 | 0.00 | 0.02 | 0.02 | 38 | 1007.1 |
| 20260505194604 | 83 | 259 | 9.0 | 20.0 | 0.00 | 0.02 | 0.02 | 37 | 1007.1 |
| 20260505194104 | 83 | 266 | 7.0 | 16.0 | 0.00 | 0.02 | 0.02 | 36 | 1007.0 |
| 20260505193604 | 83 | 267 | 3.0 | 20.0 | 0.00 | 0.02 | 0.02 | 38 | 1007.2 |
| 20260505193104 | 84 | 256 | 9.0 | 24.0 | 0.00 | 0.02 | 0.02 | 35 | 1007.3 |
| 20260505192604 | 84 | 259 | 5.0 | 15.0 | 0.00 | 0.02 | 0.02 | 36 | 1007.3 |
| 20260505192105 | 84 | 253 | 8.0 | 21.0 | 0.00 | 0.02 | 0.02 | 36 | 1007.4 |
| 20260505191604 | 84 | 246 | 7.0 | 22.0 | 0.00 | 0.02 | 0.02 | 37 | 1007.5 |
| 20260505191104 | 84 | 249 | 5.0 | 15.0 | 0.00 | 0.02 | 0.02 | 37 | 1007.5 |
| 20260505190604 | 83 | 251 | 5.0 | 15.0 | 0.00 | 0.02 | 0.02 | 41 | 1007.5 |
| 20260505190105 | 82 | 238 | 6.0 | 12.0 | 0.00 | 0.02 | 0.02 | 38 | 1007.6 |
| 20260505185105 | 83 | 238 | 5.0 | 13.0 | 0.00 | 0.02 | 0.02 | 40 | 1007.5 |
| 20260505184604 | 83 | 275 | 4.0 | 20.0 | 0.00 | 0.02 | 0.02 | 41 | 1007.7 |
| 20260505184104 | 83 | 254 | 5.0 | 20.0 | 0.00 | 0.02 | 0.02 | 44 | 1007.8 |
| 20260505183605 | 82 | 270 | 7.0 | 16.0 | 0.00 | 0.02 | 0.02 | 42 | 1007.9 |
| 20260505183104 | 82 | 272 | 6.0 | 13.0 | 0.00 | 0.02 | 0.02 | 42 | 1008.1 |
| 20260505182605 | 82 | 247 | 5.0 | 14.0 | 0.00 | 0.02 | 0.02 | 42 | 1008.0 |
| 20260505182104 | 82 | 292 | 3.0 | 12.0 | 0.00 | 0.02 | 0.02 | 41 | 1008.2 |
| 20260505181604 | 82 | 287 | 5.0 | 10.0 | 0.00 | 0.02 | 0.02 | 40 | 1008.3 |
| 20260505180604 | 83 | 303 | 8.0 | 17.0 | 0.00 | 0.02 | 0.02 | 38 | 1008.4 |
| 20260505180104 | 84 | 294 | 9.0 | 20.0 | 0.00 | 0.02 | 0.02 | 41 | 1008.3 |
| 20260505175104 | 83 | 298 | 9.0 | 25.0 | 0.00 | 0.02 | 0.02 | 41 | 1008.4 |
| 20260505174604 | 84 | 292 | 12.0 | 22.0 | 0.00 | 0.02 | 0.02 | 38 | 1008.5 |
| 20260505174104 | 83 | 283 | 3.0 | 17.0 | 0.00 | 0.02 | 0.02 | 42 | 1008.4 |
| 20260505173604 | 83 | 285 | 8.0 | 14.0 | 0.00 | 0.02 | 0.02 | 40 | 1008.4 |
| 20260505173105 | 83 | 314 | 9.0 | 21.0 | 0.00 | 0.02 | 0.02 | 42 | 1008.5 |
| 20260505172104 | 83 | 299 | 1.0 | 15.0 | 0.00 | 0.02 | 0.02 | 42 | 1008.3 |
| 20260505171604 | 82 | 291 | 7.0 | 20.0 | 0.00 | 0.02 | 0.02 | 42 | 1008.5 |
| 20260505171104 | 81 | 224 | 9.0 | 20.0 | 0.00 | 0.02 | 0.02 | 42 | 1008.4 |
| 20260505170605 | 82 | 269 | 9.0 | 17.0 | 0.00 | 0.02 | 0.02 | 42 | 1008.6 |
| 20260505165604 | 82 | 274 | 6.0 | 13.0 | 0.00 | 0.02 | 0.02 | 43 | 1008.8 |
| 20260505164604 | 81 | 309 | 8.0 | 17.0 | 0.00 | 0.02 | 0.02 | 41 | 1009.1 |
| 20260505164104 | 81 | 299 | 2.0 | 12.0 | 0.00 | 0.02 | 0.02 | 47 | 1009.1 |
| 20260505163104 | 81 | 258 | 4.0 | 13.0 | 0.00 | 0.02 | 0.02 | 45 | 1009.2 |
| 20260505162604 | 80 | 280 | 9.0 | 20.0 | 0.00 | 0.02 | 0.02 | 44 | 1009.5 |
| 20260505162104 | 80 | 291 | 12.0 | 20.0 | 0.00 | 0.02 | 0.02 | 42 | 1009.7 |
| 20260505161604 | 80 | 289 | 7.0 | 13.0 | 0.00 | 0.02 | 0.02 | 44 | 1009.7 |
| 20260505160104 | 80 | 290 | 10.0 | 17.0 | 0.00 | 0.02 | 0.02 | 43 | 1010.0 |
| 20260505153104 | 79 | 334 | 5.0 | 18.0 | 0.00 | 0.02 | 0.02 | 47 | 1010.0 |
| 20260505152104 | 79 | 300 | 10.0 | 15.0 | 0.00 | 0.02 | 0.02 | 46 | 1010.2 |
| 20260505151604 | 78 | 302 | 6.0 | 13.0 | 0.00 | 0.02 | 0.02 | 48 | 1010.0 |
| 20260505151103 | 78 | 312 | 8.0 | 20.0 | 0.00 | 0.02 | 0.02 | 46 | 1009.8 |
| 20260505150604 | 78 | 312 | 11.0 | 18.0 | 0.00 | 0.02 | 0.02 | 46 | 1009.9 |
| 20260505150105 | 78 | 301 | 3.0 | 17.0 | 0.00 | 0.02 | 0.02 | 50 | 1010.0 |
| 20260505140604 | 72 | 148 | 2.0 | 3.0 | 0.00 | 0.02 | 0.02 | 63 | 1010.5 |
| 20260505140104 | 72 | 151 | 1.0 | 3.0 | 0.00 | 0.02 | 0.02 | 64 | 1010.6 |
| 20260505130105 | 66 | 132 | 1.0 | 3.0 | 0.00 | 0.02 | 0.02 | 74 | 1010.7 |
| 20260505124104 | 64 | 142 | 1.0 | 3.0 | 0.00 | 0.02 | 0.02 | 79 | 1010.5 |
| 20260505123604 | 63 | 163 | 1.0 | 2.0 | 0.00 | 0.02 | 0.02 | 80 | 1010.5 |
| 20260505123103 | 61 | 163 | 0.0 | 0.0 | 0.00 | 0.02 | 0.02 | 80 | 1010.6 |
| 20260505122604 | 60 | 163 | 0.0 | 0.0 | 0.00 | 0.02 | 0.02 | 82 | 1010.6 |
| 20260505122104 | 60 | 163 | 0.0 | 0.0 | 0.00 | 0.02 | 0.02 | 83 | 1010.6 |
| 20260505121605 | 60 | 163 | 0.0 | 1.0 | 0.00 | 0.02 | 0.02 | 83 | 1010.7 |
| 20260505120605 | 59 | 179 | 2.0 | 3.0 | 0.01 | 0.02 | 0.02 | 85 | 1010.9 |
| 20260505120105 | 59 | 120 | 0.0 | 3.0 | 0.01 | 0.02 | 0.02 | 86 | 1011.0 |
| 20260505115604 | 59 | 37 | 1.0 | 3.0 | 0.02 | 0.02 | 0.02 | 86 | 1010.8 |
| 20260505115104 | 58 | 357 | 1.0 | 3.0 | 0.02 | 0.02 | 0.02 | 86 | 1010.7 |
| 20260505114605 | 58 | 125 | 0.0 | 1.0 | 0.02 | 0.02 | 0.02 | 85 | 1010.9 |
| 20260505113604 | 58 | 125 | 2.0 | 3.0 | 0.02 | 0.02 | 0.02 | 84 | 1010.8 |
| 20260505113104 | 58 | 125 | 0.0 | 2.0 | 0.02 | 0.02 | 0.02 | 83 | 1010.8 |
| 20260505112605 | 58 | 125 | 1.0 | 3.0 | 0.02 | 0.02 | 0.02 | 82 | 1010.8 |
| 20260505111604 | 60 | 223 | 2.0 | 9.0 | 0.02 | 0.02 | 0.02 | 82 | 1010.6 |
| 20260505110603 | 58 | 271 | 3.0 | 13.0 | 0.01 | 0.01 | 0.01 | 82 | 1009.8 |
| 20260505110104 | 58 | 235 | 3.0 | 9.0 | 0.01 | 0.01 | 0.01 | 80 | 1010.8 |
| 20260505102104 | 54 | 194 | 0.0 | 2.0 | 0.00 | 0.00 | 0.00 | 80 | 1011.1 |
| 20260505101103 | 54 | 194 | 0.0 | 0.0 | 0.00 | 0.00 | 0.00 | 80 | 1011.2 |
| 20260505100604 | 54 | 194 | 0.0 | 0.0 | 0.00 | 0.00 | 0.00 | 80 | 1011.0 |
| 20260505100104 | 53 | 194 | 0.0 | 0.0 | 0.00 | 0.00 | 0.00 | 80 | 1011.0 |
| 20260505095604 | 53 | 194 | 0.0 | 0.0 | 0.00 | 0.00 | 0.00 | 80 | 1010.8 |
| 20260505094604 | 53 | 194 | 0.0 | 0.0 | 0.00 | 0.00 | 0.00 | 79 | 1010.6 |
| 20260505092603 | 54 | 194 | 0.0 | 0.0 | 0.00 | 0.00 | 0.00 | 77 | 1010.2 |
| 20260505092103 | 54 | 194 | 0.0 | 0.0 | 0.00 | 0.00 | 0.00 | 76 | 1010.1 |
| 20260505091604 | 54 | 194 | 0.0 | 0.0 | 0.00 | 0.00 | 0.00 | 75 | 1010.0 |
| 20260505091104 | 55 | 194 | 0.0 | 0.0 | 0.00 | 0.00 | 0.00 | 75 | 1010.1 |
| 20260505090604 | 55 | 194 | 0.0 | 0.0 | 0.00 | 0.00 | 0.00 | 74 | 1010.0 |
| 20260505090104 | 56 | 194 | 0.0 | 0.0 | 0.00 | 0.00 | 0.00 | 73 | 1010.1 |
| 20260505085604 | 56 | 194 | 0.0 | 0.0 | 0.00 | 0.00 | 0.00 | 73 | 1010.1 |
| 20260505085104 | 56 | 194 | 0.0 | 0.0 | 0.00 | 0.00 | 0.00 | 72 | 1010.2 |
| 20260505084604 | 56 | 194 | 0.0 | 2.0 | 0.00 | 0.00 | 0.00 | 72 | 1010.3 |
| 20260505084104 | 57 | 228 | 0.0 | 1.0 | 0.00 | 0.00 | 0.00 | 72 | 1010.3 |
| 20260505083103 | 57 | 237 | 0.0 | 2.0 | 0.00 | 0.00 | 0.00 | 71 | 1010.3 |
| 20260505082604 | 57 | 278 | 0.0 | 0.0 | 0.00 | 0.00 | 0.00 | 71 | 1010.4 |
| 20260505082104 | 57 | 272 | 0.0 | 0.0 | 0.00 | 0.00 | 0.00 | 70 | 1010.3 |
| 20260505081603 | 57 | 272 | 0.0 | 1.0 | 0.00 | 0.00 | 0.00 | 69 | 1010.2 |
| 20260505081103 | 58 | 272 | 0.0 | 1.0 | 0.00 | 0.00 | 0.00 | 69 | 1010.2 |
| 20260505080605 | 58 | 278 | 0.0 | 2.0 | 0.00 | 0.00 | 0.00 | 69 | 1010.1 |
| 20260505080104 | 58 | 280 | 1.0 | 5.0 | 0.00 | 0.00 | 0.00 | 69 | 1010.2 |
| 20260505075604 | 58 | 254 | 1.0 | 3.0 | 0.00 | 0.00 | 0.00 | 69 | 1010.3 |
| 20260505075104 | 58 | 252 | 2.0 | 5.0 | 0.00 | 0.00 | 0.00 | 68 | 1010.3 |
| 20260505074603 | 58 | 258 | 1.0 | 2.0 | 0.00 | 0.00 | 0.00 | 68 | 1010.4 |
| 20260505074104 | 59 | 280 | 2.0 | 5.0 | 0.00 | 0.00 | 0.00 | 68 | 1010.4 |
| 20260505073605 | 59 | 259 | 1.0 | 3.0 | 0.00 | 0.00 | 0.00 | 68 | 1010.4 |
| 20260505073104 | 59 | 255 | 0.0 | 3.0 | 0.00 | 0.00 | 0.00 | 67 | 1010.4 |